Regional Weather Roundup
Issued by NWS Sterling, VA

Home | Current Version | Previous Version | Text Only | Print | Product List | Glossary Off
Versions: 1 2 3 4 5 6 7 8 9 10 11 12 13 14 15 16 17 18 19 20 21 22 23 24 25 26 27 28 29 30 31 32 33 34 35 36 37 38 39 40 41 42 43 44 45 46 47 48 49 50

000
ASUS41 KLWX 011710
RWRLWX

REGIONAL WEATHER ROUNDUP
NATIONAL WEATHER SERVICE BALTIMORE MD/WASHINGTON DC
100 PM EDT FRI AUG 01 2014

Note: "FAIR" indicates few or no clouds below 12,000 feet
with no significant weather and/or obstructions to visibility.
 TC=TEMPERATURE CELSIUS

 * =Non NWS site. Station does not report precipitation (e.g. rain,
    snow, etc.), thunder, or fog.

DCZ001-MDZ009-015-VAZ040>042-051-053>054-011800-
WASHINGTON METRO
  /KDAA//-FT BELVOIR

CITY           SKY/WX    TMP DP  RH WIND       PRES   REMARKS
WASHINGTON NAT LGT RAIN  79  65  62 S7        30.21S
DULLES         LGT RAIN  74  64  71 SW8       30.21R
ANDREWS AFB    DRIZZLE   76  66  72 SW7       30.21S
QUANTICO       LGT RAIN  74  68  81 NW3       30.21F
COLLEGE PARK*  CLOUDY    77  68  73 S6        30.20S
LEESBURG*      CLOUDY    77  66  69 SW7       30.22R
GAITHERSBURG*  CLOUDY    75  63  64 SW6       30.25R

$$

MDZ006>007-011-014-011800-
BALTIMORE METRO

CITY           SKY/WX    TMP DP  RH WIND       PRES   REMARKS
BWI AIRPORT    LGT RAIN  76  68  76 SW8       30.20R
MD SCIENCE CTR   N/A     79  67  66 MISG      30.20S
MARTIN STATE   PTSUNNY   79  72  78 S6        30.21S
ANNAPOLIS      LGT RAIN  77  67  71 W7        30.20S
FORT MEADE*    CLOUDY    73  70  88 SW3       30.23R

$$

MDZ012-015-019>023-011800-
MARYLAND EASTERN SHORE

CITY           SKY/WX    TMP DP  RH WIND       PRES   REMARKS
OCEAN CITY     CLOUDY    77  69  76 E5        30.21S
SALISBURY      CLOUDY    79  68  69 CALM      30.20F
BAY BRIDGE AP* LGT RAIN  77  68  73 SW7       30.21R
CAMBRIDGE*     CLOUDY    77  70  78 CALM      30.21S
EASTON*        CLOUDY    77  73  88 W6        30.25R

$$

MDZ017>025-011800-
SOUTHERN MARYLAND

CITY           SKY/WX    TMP DP  RH WIND       PRES   REMARKS
PATUXENT RIVER LGT RAIN  74  69  85 NW6       30.19F
ST INIGOES     LGT RAIN  74  67  78 VRB3      30.18F
LEONARDTOWN*   CLOUDY    72  68  88 CALM      30.21F

$$

MDZ003>005-011800-
NORTH CENTRAL MARYLAND

CITY           SKY/WX    TMP DP  RH WIND       PRES   REMARKS
FREDERICK*     PTSUNNY   79  70  73 SW8       30.23R
HAGERSTOWN APT CLOUDY    76  63  64 S10       30.20R
WESTMINSTER*   CLOUDY    79  68  69 SW13      30.21S

$$

MDZ501>502-011800-
WESTERN MARYLAND

CITY           SKY/WX    TMP DP  RH WIND       PRES   REMARKS
OAKLAND*       PTSUNNY   72  61  68 S7        30.24F
CUMBERLAND*    PTSUNNY   77  61  57 CALM      30.22F

$$

VAZ025>031-011800-
SHENANDOAH VALLEY

CITY           SKY/WX    TMP DP  RH WIND       PRES   REMARKS
WINCHESTER*    CLOUDY    72  63  73 SW3       30.21S
STAUNTON*      CLOUDY    70  63  78 CALM      30.24S

$$

WVZ021-048>050-054>055-011800-
EASTERN WEST VIRGINIA PANHANDLE

CITY           SKY/WX    TMP DP  RH WIND       PRES   REMARKS
MARTINSBURG    CLOUDY    75  64  68 S6        30.21S
PETERSBURG*    HVY RAIN  68  59  73 S7        30.22S

$$

VAZ036>039-050-011800-
CENTRAL FOOTHILLS

CITY           SKY/WX    TMP DP  RH WIND       PRES   REMARKS
CHARLOTTESVILL LGT RAIN  70  66  87 CALM      30.21S
ORANGE*        CLOUDY    72  66  83 N3        30.22F

$$

VAZ055>057-011800-
NORTH AND CENTRAL PIEDMONT

CITY           SKY/WX    TMP DP  RH WIND       PRES   REMARKS
FREDERICKSBRG* CLOUDY    76  71  85 CALM      30.19F
STAFFORD*      LGT RAIN  73  72  99 NW3       30.25F

$$

NCZ024-NYZ072-PAZ021-071-VAZ022-071-011800-
OTHER REGIONAL OBSERVATIONS

CITY           SKY/WX    TMP DP  RH WIND       PRES   REMARKS
NEW YORK CITY  PTSUNNY   81  65  58 VRB3G16   30.21F
PHILADELPHIA   CLOUDY    81  69  67 SW6       30.19F
PITTSBURGH     MOSUNNY   78  59  51 S5        30.16F
ROANOKE        LGT RAIN  68  64  87 N5        30.23S
RICHMOND       CLOUDY    77  69  76 N8        30.17F
RALEIGH        CLOUDY    75  64  68 E8        30.13F

$$

ANZ530>537-011800-
MARINE OBSERVATIONS

STATION/POSITION TIME  TEMP    WIND        PRES
                       AIR SEA DIR/SP/G
                 (UTC) (F)     (DEG/KT/KT) (MB)
THOMAS PT LIGHT  1700   75 78  200/  7/  7 1023.5R
BALT KEY BRIDGE  1700          210/  9/ 10 1022.3R
COVE POINT       1700   72     300/  4/  4 1022.7F
LEWISETTA        1700   74 77  340/  6/  9 1022.0F
SOLOMONS ISLAND  1700      79                N/A
PINEY POINT      1700          360/  6/  6   N/A

$$




USA.gov is the U.S. government's official web portal to all federal, state and local government web resources and services.